owner,sensor,date,latitude,longitude,vertical_datum,direction_of_sea_water_velocity,sea_water_speed,upward_sea_water_velocity,qcFlag 
TABS,ioos:station:wmo:42050:1,1998-07-01T00:00:00Z,28.8425,-94.2433,2.0,65.74097228,16.67220741,-99999.0,'11111222,11111222,99999999' 
TABS,ioos:station:wmo:42050:1,1998-07-01T00:30:00Z,28.8425,-94.2433,2.0,54.5716785,16.45720815,-99999.0,'11111222,11111222,99999999' 
TABS,ioos:station:wmo:42050:1,1998-07-01T01:00:00Z,28.8425,-94.2433,2.0,56.77156662,20.65770558,-99999.0,'11111222,11111222,99999999' 
TABS,ioos:station:wmo:42050:1,1998-07-01T01:30:00Z,28.8425,-94.2433,2.0,59.8594329,21.36921384,-99999.0,'11111222,11111222,99999999' 
TABS,ioos:station:wmo:42050:1,1998-07-01T02:00:00Z,28.8425,-94.2433,2.0,69.25589807,21.03357792,-99999.0,'11111222,11111222,99999999' 
TABS,ioos:station:wmo:42050:1,1998-07-01T02:30:00Z,28.8425,-94.2433,2.0,77.29645293,21.69097739,-99999.0,'11111222,11111222,99999999' 
TABS,ioos:station:wmo:42050:1,1998-07-01T03:00:00Z,28.8425,-94.2433,2.0,70.82427948,21.76777664,-99999.0,'11111222,11111222,99999999' 
TABS,ioos:station:wmo:42050:1,1998-07-01T03:30:00Z,28.8425,-94.2433,2.0,77.11980806,21.39842284,-99999.0,'11111222,11111222,99999999' 
TABS,ioos:station:wmo:42050:1,1998-07-01T04:00:00Z,28.8425,-94.2433,2.0,79.68492475,19.99313132,-99999.0,'11111222,11111222,99999999' 
TABS,ioos:station:wmo:42050:1,1998-07-01T04:30:00Z,28.8425,-94.2433,2.0,81.184107,17.48658915,-99999.0,'11111222,11111222,99999999' 
TABS,ioos:station:wmo:42050:1,1998-07-01T05:00:00Z,28.8425,-94.2433,2.0,89.05461311,18.18247508,-99999.0,'11111222,11111222,99999999' 
TABS,ioos:station:wmo:42050:1,1998-07-01T05:30:00Z,28.8425,-94.2433,2.0,86.12753317,17.62022985,-99999.0,'11111222,11111222,99999999' 
TABS,ioos:station:wmo:42050:1,1998-07-01T06:00:00Z,28.8425,-94.2433,2.0,84.08595409,17.37246384,-99999.0,'11111222,11111222,99999999' 
TABS,ioos:station:wmo:42050:1,1998-07-01T06:30:00Z,28.8425,-94.2433,2.0,88.01136679,17.29041353,-99999.0,'11111222,11111222,99999999' 
TABS,ioos:station:wmo:42050:1,1998-07-01T07:00:00Z,28.8425,-94.2433,2.0,85.84732225,16.43314334,-99999.0,'11111222,11111222,99999999' 
TABS,ioos:station:wmo:42050:1,1998-07-01T07:30:00Z,28.8425,-94.2433,2.0,87.97745104,17.00059117,-99999.0,'11111222,11111222,99999999' 
TABS,ioos:station:wmo:42050:1,1998-07-01T08:00:00Z,28.8425,-94.2433,2.0,84.18617912,17.67089415,-99999.0,'11111222,11111222,99999999' 
TABS,ioos:station:wmo:42050:1,1998-07-01T08:30:00Z,28.8425,-94.2433,2.0,76.40232381,19.01292455,-99999.0,'11111222,11111222,99999999' 
TABS,ioos:station:wmo:42050:1,1998-07-01T09:00:00Z,28.8425,-94.2433,2.0,72.64430522,19.97965215,-99999.0,'11111222,11111222,99999999' 
TABS,ioos:station:wmo:42050:1,1998-07-01T09:30:00Z,28.8425,-94.2433,2.0,75.74135278,19.36661561,-99999.0,'11111222,11111222,99999999' 
TABS,ioos:station:wmo:42050:1,1998-07-01T10:00:00Z,28.8425,-94.2433,2.0,72.38394209,19.69351416,-99999.0,'11111222,11111222,99999999' 
TABS,ioos:station:wmo:42050:1,1998-07-01T10:30:00Z,28.8425,-94.2433,2.0,71.31940989,21.38668043,-99999.0,'11111222,11111222,99999999' 
TABS,ioos:station:wmo:42050:1,1998-07-01T11:00:00Z,28.8425,-94.2433,2.0,67.74308939,21.25350324,-99999.0,'11111222,11111222,99999999' 
TABS,ioos:station:wmo:42050:1,1998-07-01T11:30:00Z,28.8425,-94.2433,2.0,75.78553681,21.82831189,-99999.0,'11111222,11111222,99999999' 
TABS,ioos:station:wmo:42050:1,1998-07-01T12:00:00Z,28.8425,-94.2433,2.0,75.7889978,23.0555438,-99999.0,'11111222,11111222,99999999' 
TABS,ioos:station:wmo:42050:1,1998-07-01T12:30:00Z,28.8425,-94.2433,2.0,87.65679577,21.76820158,-99999.0,'11111222,11111222,99999999' 
TABS,ioos:station:wmo:42050:1,1998-07-01T13:00:00Z,28.8425,-94.2433,2.0,85.91439277,20.91314658,-99999.0,'11111222,11111222,99999999' 
TABS,ioos:station:wmo:42050:1,1998-07-01T13:30:00Z,28.8425,-94.2433,2.0,95.7214575,20.96443894,-99999.0,'11111222,11111222,99999999' 
TABS,ioos:station:wmo:42050:1,1998-07-01T14:00:00Z,28.8425,-94.2433,2.0,101.6499703,19.16480629,-99999.0,'11111222,11111222,99999999' 
TABS,ioos:station:wmo:42050:1,1998-07-01T14:30:00Z,28.8425,-94.2433,2.0,105.5825744,18.87371982,-99999.0,'11111222,11111222,99999999' 
TABS,ioos:station:wmo:42050:1,1998-07-01T15:00:00Z,28.8425,-94.2433,2.0,112.2569106,21.25350324,-99999.0,'11111222,11111222,99999999' 
TABS,ioos:station:wmo:42050:1,1998-07-01T15:30:00Z,28.8425,-94.2433,2.0,120.1405671,21.36921384,-99999.0,'11111222,11111222,99999999' 
TABS,ioos:station:wmo:42050:1,1998-07-01T16:00:00Z,28.8425,-94.2433,2.0,123.704075,22.56243116,-99999.0,'11111222,11111222,99999999' 
TABS,ioos:station:wmo:42050:1,1998-07-01T16:30:00Z,28.8425,-94.2433,2.0,128.3328399,25.45829924,-99999.0,'11111222,11111222,99999999' 
TABS,ioos:station:wmo:42050:1,1998-07-01T17:00:00Z,28.8425,-94.2433,2.0,138.0162163,24.05374191,-99999.0,'11111222,11111222,99999999' 
TABS,ioos:station:wmo:42050:1,1998-07-01T17:30:00Z,28.8425,-94.2433,2.0,146.1182215,24.05470848,-99999.0,'11111222,11111222,99999999' 
TABS,ioos:station:wmo:42050:1,1998-07-01T18:00:00Z,28.8425,-94.2433,2.0,150.0737437,25.0960734,-99999.0,'11111222,11111222,99999999' 
TABS,ioos:station:wmo:42050:1,1998-07-01T18:30:00Z,28.8425,-94.2433,2.0,150.4119287,25.35651593,-99999.0,'11111222,11111222,99999999' 
TABS,ioos:station:wmo:42050:1,1998-07-01T19:00:00Z,28.8425,-94.2433,2.0,150.9497873,24.54827896,-99999.0,'11111222,11111222,99999999' 
TABS,ioos:station:wmo:42050:1,1998-07-01T19:30:00Z,28.8425,-94.2433,2.0,147.9146033,23.57013577,-99999.0,'11111222,11111222,99999999' 
TABS,ioos:station:wmo:42050:1,1998-07-01T20:00:00Z,28.8425,-94.2433,2.0,147.838681,21.82967705,-99999.0,'11111222,11111222,99999999' 
TABS,ioos:station:wmo:42050:1,1998-07-01T20:30:00Z,28.8425,-94.2433,2.0,158.7894965,21.42109708,-99999.0,'11111222,11111222,99999999' 
TABS,ioos:station:wmo:42050:1,1998-07-01T21:00:00Z,28.8425,-94.2433,2.0,161.5557268,19.78637157,-99999.0,'11111222,11111222,99999999' 
TABS,ioos:station:wmo:42050:1,1998-07-01T21:30:00Z,28.8425,-94.2433,2.0,161.2080138,15.73896121,-99999.0,'11111222,11111222,99999999' 
TABS,ioos:station:wmo:42050:1,1998-07-01T22:00:00Z,28.8425,-94.2433,2.0,166.2950193,12.57810797,-99999.0,'11111222,11111222,99999999' 
TABS,ioos:station:wmo:42050:1,1998-07-01T22:30:00Z,28.8425,-94.2433,2.0,168.4246278,11.86123096,-99999.0,'11111222,11111222,99999999' 
TABS,ioos:station:wmo:42050:1,1998-07-01T23:00:00Z,28.8425,-94.2433,2.0,170.924532,7.544441663,-99999.0,'11133222,11111222,99999999' 
TABS,ioos:station:wmo:42050:1,1998-07-01T23:30:00Z,28.8425,-94.2433,2.0,184.4324476,3.881610491,-99999.0,'11133222,11111222,99999999' 
TABS,ioos:station:wmo:42050:1,1998-07-02T00:00:00Z,28.8425,-94.2433,2.0,201.9336233,1.606268969,-99999.0,'11133222,11111222,99999999' 
TABS,ioos:station:wmo:42050:1,1998-07-02T00:30:00Z,28.8425,-94.2433,2.0,221.6066812,3.584243295,-99999.0,'11133222,11111222,99999999' 
TABS,ioos:station:wmo:42050:1,1998-07-02T01:00:00Z,28.8425,-94.2433,2.0,281.3842568,1.519901313,-99999.0,'11133222,11111222,99999999' 
TABS,ioos:station:wmo:42050:1,1998-07-02T01:30:00Z,28.8425,-94.2433,2.0,350.4860122,3.629931129,-99999.0,'11133222,11111222,99999999' 
TABS,ioos:station:wmo:42050:1,1998-07-02T02:00:00Z,28.8425,-94.2433,2.0,356.4014508,4.779424652,-99999.0,'11133222,11111222,99999999' 
TABS,ioos:station:wmo:42050:1,1998-07-02T02:30:00Z,28.8425,-94.2433,2.0,357.1186335,5.967545559,-99999.0,'11133222,11111222,99999999' 
TABS,ioos:station:wmo:42050:1,1998-07-02T03:00:00Z,28.8425,-94.2433,2.0,2.881787449,5.967545559,-99999.0,'11133222,11111222,99999999' 
TABS,ioos:station:wmo:42050:1,1998-07-02T03:30:00Z,28.8425,-94.2433,2.0,0.000210459,7.75,-99999.0,'11133222,11111222,99999999' 
TABS,ioos:station:wmo:42050:1,1998-07-02T04:00:00Z,28.8425,-94.2433,2.0,358.0115773,8.645206764,-99999.0,'11133222,11111222,99999999' 
TABS,ioos:station:wmo:42050:1,1998-07-02T04:30:00Z,28.8425,-94.2433,2.0,3.97269711,8.660808276,-99999.0,'11133222,11111222,99999999' 
TABS,ioos:station:wmo:42050:1,1998-07-02T05:00:00Z,28.8425,-94.2433,2.0,2.507906322,6.856566196,-99999.0,'11133222,11111222,99999999' 
TABS,ioos:station:wmo:42050:1,1998-07-02T05:30:00Z,28.8425,-94.2433,2.0,11.29162806,6.077639344,-99999.0,'11133222,11111222,99999999' 
TABS,ioos:station:wmo:42050:1,1998-07-02T06:00:00Z,28.8425,-94.2433,2.0,10.62709306,9.706477219,-99999.0,'11133222,11111222,99999999' 
TABS,ioos:station:wmo:42050:1,1998-07-02T06:30:00Z,28.8425,-94.2433,2.0,17.23328592,9.046104134,-99999.0,'11133222,11111222,99999999' 
TABS,ioos:station:wmo:42050:1,1998-07-02T07:00:00Z,28.8425,-94.2433,2.0,32.20341943,9.513537723,-99999.0,'11133222,11111222,99999999' 
TABS,ioos:station:wmo:42050:1,1998-07-02T07:30:00Z,28.8425,-94.2433,2.0,38.92938382,9.962434441,-99999.0,'11133222,11111222,99999999' 
TABS,ioos:station:wmo:42050:1,1998-07-02T08:00:00Z,28.8425,-94.2433,2.0,46.23896785,9.484518965,-99999.0,'11133222,11111222,99999999' 
TABS,ioos:station:wmo:42050:1,1998-07-02T08:30:00Z,28.8425,-94.2433,2.0,55.88286475,11.1608781,-99999.0,'11111222,11111222,99999999' 
TABS,ioos:station:wmo:42050:1,1998-07-02T09:00:00Z,28.8425,-94.2433,2.0,45.00010523,10.96015511,-99999.0,'11111222,11111222,99999999' 
TABS,ioos:station:wmo:42050:1,1998-07-02T09:30:00Z,28.8425,-94.2433,2.0,42.5359487,9.703406618,-99999.0,'11133222,11111222,99999999' 
TABS,ioos:station:wmo:42050:1,1998-07-02T10:00:00Z,28.8425,-94.2433,2.0,43.8229631,10.32593821,-99999.0,'11111222,11111222,99999999' 
TABS,ioos:station:wmo:42050:1,1998-07-02T10:30:00Z,28.8425,-94.2433,2.0,48.68649992,13.08734121,-99999.0,'11111222,11111222,99999999' 
TABS,ioos:station:wmo:42050:1,1998-07-02T11:00:00Z,28.8425,-94.2433,2.0,52.58213654,12.75458349,-99999.0,'11111222,11111222,99999999' 
TABS,ioos:station:wmo:42050:1,1998-07-02T11:30:00Z,28.8425,-94.2433,2.0,49.84190169,12.48255182,-99999.0,'11111222,11111222,99999999' 
TABS,ioos:station:wmo:42050:1,1998-07-02T12:00:00Z,28.8425,-94.2433,2.0,61.31591307,14.27140147,-99999.0,'11111222,11111222,99999999' 
TABS,ioos:station:wmo:42050:1,1998-07-02T12:30:00Z,28.8425,-94.2433,2.0,68.20811341,11.23271116,-99999.0,'11111222,11111222,99999999' 
TABS,ioos:station:wmo:42050:1,1998-07-02T13:00:00Z,28.8425,-94.2433,2.0,55.48646023,11.57778908,-99999.0,'11111222,11111222,99999999' 
TABS,ioos:station:wmo:42050:1,1998-07-02T13:30:00Z,28.8425,-94.2433,2.0,56.31001126,10.7445428,-99999.0,'11111222,11111222,99999999' 
TABS,ioos:station:wmo:42050:1,1998-07-02T14:00:00Z,28.8425,-94.2433,2.0,37.20804537,10.84818879,-99999.0,'11111222,11111222,99999999' 
TABS,ioos:station:wmo:42050:1,1998-07-02T14:30:00Z,28.8425,-94.2433,2.0,45.00010523,10.96015511,-99999.0,'11111222,11111222,99999999' 
TABS,ioos:station:wmo:42050:1,1998-07-02T15:00:00Z,28.8425,-94.2433,2.0,35.34023474,8.765124072,-99999.0,'11133222,11111222,99999999' 
TABS,ioos:station:wmo:42050:1,1998-07-02T15:30:00Z,28.8425,-94.2433,2.0,38.67165,7.633773641,-99999.0,'11133222,11111222,99999999' 
TABS,ioos:station:wmo:42050:1,1998-07-02T16:00:00Z,28.8425,-94.2433,2.0,35.82997313,6.611089169,-99999.0,'11133222,11111222,99999999' 
TABS,ioos:station:wmo:42050:1,1998-07-02T16:30:00Z,28.8425,-94.2433,2.0,42.49606024,4.855388759,-99999.0,'11133222,11111222,99999999' 
TABS,ioos:station:wmo:42050:1,1998-07-02T17:00:00Z,28.8425,-94.2433,2.0,41.60710209,3.584243295,-99999.0,'11133222,11111222,99999999' 
TABS,ioos:station:wmo:42050:1,1998-07-02T17:30:00Z,28.8425,-94.2433,2.0,36.9469804,2.978002686,-99999.0,'11133222,11111222,99999999' 
TABS,ioos:station:wmo:42050:1,1998-07-02T18:00:00Z,28.8425,-94.2433,2.0,23.06627148,2.27160736,-99999.0,'11133222,11111222,99999999' 
TABS,ioos:station:wmo:42050:1,1998-07-02T18:30:00Z,28.8425,-94.2433,2.0,134.9998948,1.682914139,-99999.0,'11133222,11111222,99999999' 
TABS,ioos:station:wmo:42050:1,1998-07-02T19:00:00Z,28.8425,-94.2433,2.0,315.0003157,2.107178208,-99999.0,'11133222,11111222,99999999' 
TABS,ioos:station:wmo:42050:1,1998-07-02T19:30:00Z,28.8425,-94.2433,2.0,316.8599107,6.537109453,-99999.0,'11133222,11111222,99999999' 
TABS,ioos:station:wmo:42050:1,1998-07-02T20:00:00Z,28.8425,-94.2433,2.0,315.0003157,2.955706345,-99999.0,'11133222,11111222,99999999' 
TABS,ioos:station:wmo:42050:1,1998-07-02T20:30:00Z,28.8425,-94.2433,2.0,296.437232,1.999049774,-99999.0,'11133222,11111222,99999999' 
TABS,ioos:station:wmo:42050:1,1998-07-02T21:00:00Z,28.8425,-94.2433,2.0,344.0427642,6.510890876,-99999.0,'11133222,11111222,99999999' 
TABS,ioos:station:wmo:42050:1,1998-07-02T21:30:00Z,28.8425,-94.2433,2.0,357.4925146,6.856566196,-99999.0,'11133222,11111222,99999999' 
TABS,ioos:station:wmo:42050:1,1998-07-02T22:00:00Z,28.8425,-94.2433,2.0,357.7834213,7.755804278,-99999.0,'11133222,11111222,99999999' 
TABS,ioos:station:wmo:42050:1,1998-07-02T22:30:00Z,28.8425,-94.2433,2.0,351.5913184,8.137481183,-99999.0,'11133222,11111222,99999999' 
TABS,ioos:station:wmo:42050:1,1998-07-02T23:00:00Z,28.8425,-94.2433,2.0,344.5993373,8.961807853,-99999.0,'11133222,11111222,99999999' 
TABS,ioos:station:wmo:42050:1,1998-07-02T23:30:00Z,28.8425,-94.2433,2.0,341.5866598,8.484391552,-99999.0,'11133222,11111222,99999999' 
TABS,ioos:station:wmo:42050:1,1998-07-03T00:00:00Z,28.8425,-94.2433,2.0,344.7500595,10.18878305,-99999.0,'11111222,11111222,99999999' 
TABS,ioos:station:wmo:42050:1,1998-07-03T00:30:00Z,28.8425,-94.2433,2.0,336.0328233,11.74247844,-99999.0,'11111222,11111222,99999999' 
TABS,ioos:station:wmo:42050:1,1998-07-03T01:00:00Z,28.8425,-94.2433,2.0,348.4250487,11.86123096,-99999.0,'11111222,11111222,99999999' 
TABS,ioos:station:wmo:42050:1,1998-07-03T01:30:00Z,28.8425,-94.2433,2.0,357.1186335,11.93509112,-99999.0,'11111222,11111222,99999999' 
TABS,ioos:station:wmo:42050:1,1998-07-03T02:00:00Z,28.8425,-94.2433,2.0,9.477352048,12.69324624,-99999.0,'11111222,11111222,99999999' 
TABS,ioos:station:wmo:42050:1,1998-07-03T02:30:00Z,28.8425,-94.2433,2.0,7.954886731,12.93445785,-99999.0,'11111222,11111222,99999999' 
TABS,ioos:station:wmo:42050:1,1998-07-03T03:00:00Z,28.8425,-94.2433,2.0,18.42032256,12.24750179,-99999.0,'11111222,11111222,99999999' 
TABS,ioos:station:wmo:42050:1,1998-07-03T03:30:00Z,28.8425,-94.2433,2.0,16.3927746,10.55922819,-99999.0,'11111222,11111222,99999999' 
TABS,ioos:station:wmo:42050:1,1998-07-03T04:00:00Z,28.8425,-94.2433,2.0,27.30445714,10.39858163,-99999.0,'11111222,11111222,99999999' 
TABS,ioos:station:wmo:42050:1,1998-07-03T04:30:00Z,28.8425,-94.2433,2.0,29.93297881,11.34303751,-99999.0,'11111222,11111222,99999999' 
TABS,ioos:station:wmo:42050:1,1998-07-03T05:00:00Z,28.8425,-94.2433,2.0,40.92181701,11.83157217,-99999.0,'11111222,11111222,99999999' 
TABS,ioos:station:wmo:42050:1,1998-07-03T05:30:00Z,28.8425,-94.2433,2.0,47.57688911,9.279552791,-99999.0,'11133222,11111222,99999999' 
TABS,ioos:station:wmo:42050:1,1998-07-03T06:00:00Z,28.8425,-94.2433,2.0,57.36992266,8.846208227,-99999.0,'11133222,11111222,99999999' 
TABS,ioos:station:wmo:42050:1,1998-07-03T06:30:00Z,28.8425,-94.2433,2.0,66.38958386,10.41155608,-99999.0,'11111222,11111222,99999999' 
TABS,ioos:station:wmo:42050:1,1998-07-03T07:00:00Z,28.8425,-94.2433,2.0,68.82139573,9.909288572,-99999.0,'11133222,11111222,99999999' 
TABS,ioos:station:wmo:42050:1,1998-07-03T07:30:00Z,28.8425,-94.2433,2.0,59.59542358,10.01770932,-99999.0,'11111222,11111222,99999999' 
TABS,ioos:station:wmo:42050:1,1998-07-03T08:00:00Z,28.8425,-94.2433,2.0,70.92432898,8.200298775,-99999.0,'11133222,11111222,99999999' 
TABS,ioos:station:wmo:42050:1,1998-07-03T08:30:00Z,28.8425,-94.2433,2.0,74.3292678,7.73760945,-99999.0,'11133222,11111222,99999999' 
TABS,ioos:station:wmo:42050:1,1998-07-03T09:00:00Z,28.8425,-94.2433,2.0,43.8229631,10.32593821,-99999.0,'11111222,11111222,99999999' 
TABS,ioos:station:wmo:42050:1,1998-07-03T09:30:00Z,28.8425,-94.2433,2.0,49.3988003,13.73712124,-99999.0,'11111222,11111222,99999999' 
TABS,ioos:station:wmo:42050:1,1998-07-03T10:00:00Z,28.8425,-94.2433,2.0,54.78471006,12.39916933,-99999.0,'11111222,11111222,99999999' 
TABS,ioos:station:wmo:42050:1,1998-07-03T10:30:00Z,28.8425,-94.2433,2.0,55.3906852,15.2118375,-99999.0,'11111222,11111222,99999999' 
TABS,ioos:station:wmo:42050:1,1998-07-03T11:00:00Z,28.8425,-94.2433,2.0,60.94546384,15.34048891,-99999.0,'11111222,11111222,99999999' 
TABS,ioos:station:wmo:42050:1,1998-07-03T11:30:00Z,28.8425,-94.2433,2.0,50.70116667,16.94122192,-99999.0,'11111222,11111222,99999999' 
TABS,ioos:station:wmo:42050:1,1998-07-03T12:00:00Z,28.8425,-94.2433,2.0,52.73771322,17.22640415,-99999.0,'11111222,11111222,99999999' 
TABS,ioos:station:wmo:42050:1,1998-07-03T12:30:00Z,28.8425,-94.2433,2.0,52.14359335,13.59001472,-99999.0,'11111222,11111222,99999999' 
TABS,ioos:station:wmo:42050:1,1998-07-03T13:00:00Z,28.8425,-94.2433,2.0,39.95354129,14.38883248,-99999.0,'11111222,11111222,99999999' 
TABS,ioos:station:wmo:42050:1,1998-07-03T13:30:00Z,28.8425,-94.2433,2.0,39.63777772,13.54379932,-99999.0,'11111222,11111222,99999999' 
TABS,ioos:station:wmo:42050:1,1998-07-03T14:00:00Z,28.8425,-94.2433,2.0,40.31216241,12.89125673,-99999.0,'11111222,11111222,99999999' 
TABS,ioos:station:wmo:42050:1,1998-07-03T14:30:00Z,28.8425,-94.2433,2.0,44.18783953,14.96388319,-99999.0,'11111222,11111222,99999999' 
TABS,ioos:station:wmo:42050:1,1998-07-03T15:00:00Z,28.8425,-94.2433,2.0,46.96590214,18.34607587,-99999.0,'11111222,11111222,99999999' 
TABS,ioos:station:wmo:42050:1,1998-07-03T15:30:00Z,28.8425,-94.2433,2.0,55.56870416,19.50766516,-99999.0,'11111222,11111222,99999999' 
TABS,ioos:station:wmo:42050:1,1998-07-03T16:00:00Z,28.8425,-94.2433,2.0,62.96602568,16.39092737,-99999.0,'11111222,11111222,99999999' 
TABS,ioos:station:wmo:42050:1,1998-07-03T16:30:00Z,28.8425,-94.2433,2.0,75.20647234,16.33135022,-99999.0,'11111222,11111222,99999999' 
TABS,ioos:station:wmo:42050:1,1998-07-03T17:00:00Z,28.8425,-94.2433,2.0,78.29530915,17.64694874,-99999.0,'11111222,11111222,99999999' 
TABS,ioos:station:wmo:42050:1,1998-07-03T17:30:00Z,28.8425,-94.2433,2.0,99.70543092,12.39743925,-99999.0,'11111222,11111222,99999999' 
TABS,ioos:station:wmo:42050:1,1998-07-03T18:00:00Z,28.8425,-94.2433,2.0,84.29893856,11.9792529,-99999.0,'11111222,11111222,99999999' 
TABS,ioos:station:wmo:42050:1,1998-07-03T18:30:00Z,28.8425,-94.2433,2.0,94.53872488,18.82904671,-99999.0,'11111222,11111222,99999999' 
TABS,ioos:station:wmo:42050:1,1998-07-03T19:00:00Z,28.8425,-94.2433,2.0,96.34799352,16.18926187,-99999.0,'11111222,11111222,99999999' 
TABS,ioos:station:wmo:42050:1,1998-07-03T19:30:00Z,28.8425,-94.2433,2.0,101.7046908,17.64694874,-99999.0,'11111222,11111222,99999999' 
TABS,ioos:station:wmo:42050:1,1998-07-03T20:00:00Z,28.8425,-94.2433,2.0,107.1766229,13.10447633,-99999.0,'11111222,11111222,99999999' 
TABS,ioos:station:wmo:42050:1,1998-07-03T20:30:00Z,28.8425,-94.2433,2.0,108.4349057,14.13538114,-99999.0,'11111222,11111222,99999999' 
TABS,ioos:station:wmo:42050:1,1998-07-03T21:00:00Z,28.8425,-94.2433,2.0,112.6160204,11.62384618,-99999.0,'11111222,11111222,99999999' 
TABS,ioos:station:wmo:42050:1,1998-07-03T21:30:00Z,28.8425,-94.2433,2.0,78.97891646,12.44961044,-99999.0,'11111222,11111222,99999999' 
TABS,ioos:station:wmo:42050:1,1998-07-03T22:00:00Z,28.8425,-94.2433,2.0,88.1988437,9.544715816,-99999.0,'11133222,11111222,99999999' 
TABS,ioos:station:wmo:42050:1,1998-07-03T22:30:00Z,28.8425,-94.2433,2.0,87.86574623,8.055588123,-99999.0,'11133222,11111222,99999999' 
TABS,ioos:station:wmo:42050:1,1998-07-03T23:00:00Z,28.8425,-94.2433,2.0,83.9989124,11.38237673,-99999.0,'11111222,11111222,99999999' 
TABS,ioos:station:wmo:42050:1,1998-07-03T23:30:00Z,28.8425,-94.2433,2.0,85.25846572,10.76684726,-99999.0,'11111222,11111222,99999999' 
TABS,ioos:station:wmo:42050:1,1998-07-04T00:00:00Z,28.8425,-94.2433,2.0,73.82559091,9.620810777,-99999.0,'11133222,11111222,99999999' 
TABS,ioos:station:wmo:42050:1,1998-07-04T00:30:00Z,28.8425,-94.2433,2.0,55.63061758,20.58359784,-99999.0,'11111222,11111222,99999999' 
TABS,ioos:station:wmo:42050:1,1998-07-04T01:00:00Z,28.8425,-94.2433,2.0,60.0248313,17.89339543,-99999.0,'11111222,11111222,99999999' 
TABS,ioos:station:wmo:42050:1,1998-07-04T01:30:00Z,28.8425,-94.2433,2.0,65.55829703,21.60630695,-99999.0,'11111222,11111222,99999999' 
TABS,ioos:station:wmo:42050:1,1998-07-04T02:00:00Z,28.8425,-94.2433,2.0,61.64472929,21.32908343,-99999.0,'11111222,11111222,99999999' 
TABS,ioos:station:wmo:42050:1,1998-07-04T02:30:00Z,28.8425,-94.2433,2.0,65.84404294,18.9383447,-99999.0,'11111222,11111222,99999999' 
TABS,ioos:station:wmo:42050:1,1998-07-04T03:00:00Z,28.8425,-94.2433,2.0,66.41046221,23.0894608,-99999.0,'11111222,11111222,99999999' 
TABS,ioos:station:wmo:42050:1,1998-07-04T03:30:00Z,28.8425,-94.2433,2.0,68.19864149,16.04779113,-99999.0,'11111222,11111222,99999999' 
TABS,ioos:station:wmo:42050:1,1998-07-04T04:00:00Z,28.8425,-94.2433,2.0,67.37449821,15.49230777,-99999.0,'11111222,11111222,99999999' 
TABS,ioos:station:wmo:42050:1,1998-07-04T04:30:00Z,28.8425,-94.2433,2.0,74.2371525,12.07405483,-99999.0,'11111222,11111222,99999999' 
TABS,ioos:station:wmo:42050:1,1998-07-04T05:00:00Z,28.8425,-94.2433,2.0,69.14368772,13.39788416,-99999.0,'11111222,11111222,99999999' 
TABS,ioos:station:wmo:42050:1,1998-07-04T05:30:00Z,28.8425,-94.2433,2.0,71.57882437,13.19618505,-99999.0,'11111222,11111222,99999999' 
TABS,ioos:station:wmo:42050:1,1998-07-04T06:00:00Z,28.8425,-94.2433,2.0,73.13517004,10.271772,-99999.0,'11111222,11111222,99999999' 
TABS,ioos:station:wmo:42050:1,1998-07-04T06:30:00Z,28.8425,-94.2433,2.0,74.47867937,11.1361259,-99999.0,'11111222,11111222,99999999' 
TABS,ioos:station:wmo:42050:1,1998-07-04T07:00:00Z,28.8425,-94.2433,2.0,74.3292678,7.73760945,-99999.0,'11133222,11111222,99999999' 
TABS,ioos:station:wmo:42050:1,1998-07-04T07:30:00Z,28.8425,-94.2433,2.0,76.99461532,7.954030425,-99999.0,'11133222,11111222,99999999' 
TABS,ioos:station:wmo:42050:1,1998-07-04T08:00:00Z,28.8425,-94.2433,2.0,82.59721789,6.907575552,-99999.0,'11133222,11111222,99999999' 
TABS,ioos:station:wmo:42050:1,1998-07-04T08:30:00Z,28.8425,-94.2433,2.0,73.70599065,7.449201299,-99999.0,'11133222,11111222,99999999' 
TABS,ioos:station:wmo:42050:1,1998-07-04T09:00:00Z,28.8425,-94.2433,2.0,73.52961008,8.394456504,-99999.0,'11133222,11111222,99999999' 
TABS,ioos:station:wmo:42050:1,1998-07-04T09:30:00Z,28.8425,-94.2433,2.0,69.45278514,7.635764533,-99999.0,'11133222,11111222,99999999' 
TABS,ioos:station:wmo:42050:1,1998-07-04T10:00:00Z,28.8425,-94.2433,2.0,72.12496877,9.708655932,-99999.0,'11133222,11111222,99999999' 
TABS,ioos:station:wmo:42050:1,1998-07-04T10:30:00Z,28.8425,-94.2433,2.0,75.55599805,9.541593158,-99999.0,'11133222,11111222,99999999' 
TABS,ioos:station:wmo:42050:1,1998-07-04T11:00:00Z,28.8425,-94.2433,2.0,75.18132803,10.47851612,-99999.0,'11111222,11111222,99999999' 
TABS,ioos:station:wmo:42050:1,1998-07-04T11:30:00Z,28.8425,-94.2433,2.0,68.19864149,8.023895563,-99999.0,'11133222,11111222,99999999' 
TABS,ioos:station:wmo:42050:1,1998-07-04T12:00:00Z,28.8425,-94.2433,2.0,67.8314452,8.692577293,-99999.0,'11133222,11111222,99999999' 
TABS,ioos:station:wmo:42050:1,1998-07-04T12:30:00Z,28.8425,-94.2433,2.0,72.18560048,8.760022831,-99999.0,'11133222,11111222,99999999' 
TABS,ioos:station:wmo:42050:1,1998-07-04T13:00:00Z,28.8425,-94.2433,2.0,70.33751832,8.856410108,-99999.0,'11133222,11111222,99999999' 
TABS,ioos:station:wmo:42050:1,1998-07-04T13:30:00Z,28.8425,-94.2433,2.0,53.4932399,8.522171085,-99999.0,'11133222,11111222,99999999' 
TABS,ioos:station:wmo:42050:1,1998-07-04T14:00:00Z,28.8425,-94.2433,2.0,51.07082664,9.962434441,-99999.0,'11133222,11111222,99999999' 
TABS,ioos:station:wmo:42050:1,1998-07-04T14:30:00Z,28.8425,-94.2433,2.0,58.00548991,11.2486977,-99999.0,'11111222,11111222,99999999' 
TABS,ioos:station:wmo:42050:1,1998-07-04T15:00:00Z,28.8425,-94.2433,2.0,49.84190169,12.48255182,-99999.0,'11111222,11111222,99999999' 
TABS,ioos:station:wmo:42050:1,1998-07-04T15:30:00Z,28.8425,-94.2433,2.0,49.84190169,12.48255182,-99999.0,'11111222,11111222,99999999' 
TABS,ioos:station:wmo:42050:1,1998-07-04T16:00:00Z,28.8425,-94.2433,2.0,56.70479608,12.47827712,-99999.0,'11111222,11111222,99999999' 